Location: Willingham
(52.3167°N, 0.0667°E)
Time: 15:40:38
(UTC+00:00)

Cosmos 2360 Rocket - Pass Details

Date: 19 May 2025
Orbit: 834 x 842 km, 71.0° (Epoch: 18 June)

Event Time Altitude Azimuth Distance (km) Brightness Sun altitude
Rises 21:23:25 0° 327° (NNW) 3,395 7.6 -10.4°
Reaches altitude 10° 21:26:33 10° 344° (NNW) 2,458 5.9 -10.7°
Maximum altitude 21:30:39 20° 32° (NNE) 1,839 4.3 -11.1°
Drops below altitude 10° 21:34:45 10° 79° (ENE) 2,451 4.4 -11.4°
Enters shadow 21:37:49 - 95° (E) 3,371 5.0 -11.7°
